Theta_e
318 320 320 320 320 324 324 324 322 321 320 319 319 319 318 318 318 319 318 315 314 314 315 316 315 314 315 312 310 323 330 327 319 314 312 310 307 305 302 304 305 303 304 307 307 308 311
317 318 319 320 319 321 325 323 322 320 319 319 318 318 318 318 318 318 318 316 315 314 315 316 314 313 314 304 317 322 323 322 315 313 313 312 308 309 305 305 303 306 305 306 307 309 310
315 317 318 319 319 319 323 322 321 320 320 319 318 318 317 317 317 318 317 317 315 314 317 314 313 315 311 308 319 321 322 319 317 315 312 313 313 309 309 306 310 307 302 303 306 308 308
315 315 317 317 317 317 319 321 321 320 320 319 318 317 316 316 316 316 316 316 316 315 315 313 313 316 308 319 321 318 320 320 321 320 317 317 317 311 309 311 306 301 302 297 304 305 308
314 314 315 316 317 316 316 319 320 320 320 319 318 317 316 315 315 315 315 315 316 315 315 313 315 315 307 320 314 318 319 315 317 318 318 317 314 310 309 303 299 300 294 297 300 306 306
313 313 314 315 316 316 316 317 319 319 318 318 318 317 316 315 315 315 315 315 316 312 313 317 316 310 315 310 314 315 319 317 314 314 312 311 309 305 304 301 291 294 294 298 298 303 304
313 313 313 313 314 316 317 317 318 318 318 317 317 317 316 315 315 314 313 314 311 310 313 307 308 307 310 315 317 314 317 313 314 312 305 308 302 299 301 303 302 300 298 297 300 303 301
312 312 313 312 313 315 316 316 316 317 317 317 316 316 316 316 315 314 315 313 313 317 309 314 309 311 313 315 308 311 316 308 308 303 306 304 298 303 304 304 302 300 298 298 300 302 300
311 312 312 312 313 314 315 316 315 317 317 316 316 316 316 314 314 313 313 312 320 321 309 310 313 306 309 313 308 308 312 309 305 302 303 300 301 306 303 301 299 299 299 299 298 301 301
309 310 311 312 312 313 314 315 315 316 316 315 315 314 314 313 309 315 313 318 319 322 303 303 306 306 310 311 306 312 313 309 306 301 303 302 305 304 302 300 301 297 304 301 300 298 292
307 308 310 310 311 311 312 313 313 314 316 315 314 314 312 312 316 314 318 321 322 319 290 304 305 314 312 307 308 307 314 309 303 302 303 300 301 301 301 301 304 299 305 302 301 298 298
307 307 309 310 310 311 311 312 312 312 315 315 313 313 312 313 314 317 323 328 322 302 289 299 304 303 304 305 306 308 307 311 309 303 304 302 308 305 304 305 305 306 303 302 301 299 291
306 306 308 309 309 310 310 312 311 311 314 314 313 313 312 317 312 322 325 319 300 292 302 298 299 303 302 301 302 303 302 301 299 296 297 301 301 306 307 302 305 303 299 293 287 288 290
303 305 306 308 309 309 310 311 310 310 312 313 312 311 312 316 321 326 322 308 292 297 299 303 302 302 299 302 301 301 301 297 302 301 297 295 293 302 306 302 299 300 299 292 285 285 291
303 304 305 306 307 309 310 310 310 310 312 312 311 313 312 317 320 324 312 296 295 300 302 301 301 298 298 301 301 300 299 298 301 302 296 295 295 304 306 305 305 300 297 302 295 298 293
302 304 304 305 306 307 308 310 309 310 312 311 309 309 309 320 323 317 306 297 301 306 305 303 296 299 296 298 298 299 298 302 300 304 307 301 293 302 304 306 305 301 303 296 297 287 285
302 302 303 304 303 306 307 309 309 309 311 311 308 303 313 322 321 308 298 300 304 308 308 302 299 298 299 298 299 298 298 301 304 304 307 302 297 298 303 300 297 300 298 298 297 297 290
301 302 302 303 302 306 307 308 308 309 310 309 306 298 318 322 302 301 300 303 304 307 308 306 305 302 300 301 299 298 297 301 307 307 301 305 302 297 298 304 306 303 300 300 296 291 296
301 301 302 303 302 305 306 307 308 309 310 308 302 305 319 318 296 298 302 303 306 305 306 305 303 304 304 301 298 300 302 309 310 306 303 306 300 293 294 300 303 299 300 300 300 301 294
300 301 301 302 302 302 306 307 307 307 310 309 304 299 306 311 307 300 300 301 302 309 305 307 305 305 303 301 304 301 301 306 309 308 303 307 301 296 291 294 300 298 299 300 299 295 294
300 300 301 301 300 303 305 306 307 307 309 308 307 302 306 297 302 302 306 303 301 302 306 307 304 303 302 299 300 300 303 305 306 302 305 305 296 298 298 299 300 299 299 299 297 298 294
299 300 300 300 300 303 305 306 305 306 308 304 304 303 308 305 305 302 301 303 302 303 304 303 302 303 304 301 301 299 303 305 302 306 305 306 298 300 297 300 299 296 298 298 298 298 297
299 300 301 300 301 303 305 305 305 305 305 303 308 313 308 303 304 300 303 304 304 307 307 307 306 305 304 306 310 312 312 311 308 306 304 304 302 298 293 296 294 289 296 297 298 300 299
300 300 301 302 302 303 305 305 305 305 304 303 309 314 306 301 302 302 305 306 305 306 305 308 310 307 311 316 314 313 310 309 309 308 309 304 302 300 294 289 285 295 301 299 296 297 299
300 301 302 302 303 304 304 304 304 304 305 302 307 311 310 299 304 304 304 307 309 308 305 309 311 314 317 313 306 300 300 298 301 303 303 307 302 294 290 290 293 296 298 296 295 295 300
300 301 302 302 303 303 303 304 304 304 304 305 302 305 309 306 304 308 307 309 305 306 304 308 314 319 316 311 306 297 294 297 296 297 301 301 305 298 293 289 284 297 299 302 300 292 301
301 301 302 303 303 303 303 303 303 304 304 302 303 307 305 308 312 311 306 307 311 306 304 307 306 308 313 306 295 301 298 300 295 294 290 295 296 291 292 291 295 300 301 302 291 295 303
301 301 302 302 303 303 303 303 303 303 304 303 305 310 307 310 313 315 314 311 311 303 301 309 308 309 310 303 304 304 299 302 299 299 296 294 294 291 296 288 286 301 300 294 302 305 304
301 302 302 302 302 302 302 303 303 304 304 306 304 312 315 313 314 320 318 319 318 317 314 312 312 309 310 307 307 308 294 294 299 295 302 296 300 299 298 297 304 304 302 305 306 304 305
Wind_Speed
11 9 8 8 10 13 13 13 11 11 9 9 8 9 10 12 13 12 11 13 14 14 13 13 10 10 8 8 13 7 11 8 9 11 12 14 10 11 14 13 12 14 17 7 7 5 8
12 12 9 7 8 12 15 13 12 11 10 9 9 9 9 11 12 11 11 12 14 14 13 10 8 9 5 12 5 10 8 8 11 12 13 13 9 10 11 16 11 9 14 4 3 3 2
14 12 12 9 7 10 15 13 12 12 11 10 9 9 10 10 11 11 11 10 11 12 11 8 6 6 9 20 12 7 7 10 12 14 14 11 10 9 7 11 11 5 7 4 2 3 4
14 13 12 11 8 8 11 14 13 12 11 10 10 9 9 10 11 11 10 9 9 11 10 8 6 8 9 11 13 15 13 12 12 11 12 11 7 9 10 13 7 8 6 5 6 12 9
15 14 13 12 10 10 10 12 14 13 12 10 10 9 8 9 10 11 10 9 9 11 9 9 6 7 10 2 12 14 13 13 5 7 9 4 6 10 11 11 9 1 6 9 16 13 7
17 16 14 13 13 12 11 11 14 14 12 11 10 9 9 9 9 9 9 7 6 6 8 11 9 9 10 11 12 15 9 6 6 7 6 8 6 7 9 8 5 8 15 16 13 13 11
20 20 18 17 15 14 12 11 13 14 13 12 11 9 8 8 8 7 6 6 6 7 12 10 10 10 4 4 4 7 11 9 10 9 11 11 7 9 6 5 13 11 15 15 11 13 8
20 19 19 19 17 15 14 14 11 13 14 13 11 9 7 6 7 3 6 7 4 9 10 20 19 18 14 8 9 13 13 10 9 9 11 11 6 6 15 17 19 16 1 10 13 9 10
19 20 20 19 17 16 15 14 10 12 14 13 11 9 6 4 3 4 12 16 14 14 8 15 22 18 15 14 14 14 11 14 12 4 9 16 3 14 12 16 12 9 12 7 10 7 11
20 19 20 20 19 18 16 14 10 11 15 13 12 10 8 8 3 9 10 13 16 8 7 10 17 14 14 7 14 21 18 16 5 10 9 4 10 16 18 12 5 2 11 8 16 16 7
24 22 21 21 20 19 16 13 11 11 15 14 13 12 12 17 9 9 10 10 8 4 5 11 16 9 13 15 7 18 4 12 6 12 5 4 15 19 21 8 5 3 9 17 16 5 4
26 25 22 22 21 20 17 16 13 11 13 15 14 14 12 6 6 15 15 10 3 6 8 6 12 13 18 14 17 9 14 11 10 1 6 11 17 21 2 2 2 13 10 15 9 9 8
27 24 22 22 22 21 19 18 15 12 13 15 15 16 13 8 7 12 8 4 6 9 10 11 18 16 17 15 16 13 16 17 13 9 8 8 16 4 4 6 6 8 10 3 9 9 4
28 25 24 22 23 23 22 19 16 13 14 16 15 14 11 11 10 8 6 6 12 11 22 3 16 15 20 17 15 14 13 17 18 18 9 12 9 13 8 7 4 15 7 4 2 6 7
29 28 26 23 21 24 22 21 17 14 14 18 15 9 8 9 12 7 9 13 11 13 21 8 13 14 18 19 10 14 16 16 18 18 11 6 3 14 11 3 10 10 4 4 7 3 2
32 30 29 24 19 25 25 22 19 15 15 21 7 9 12 12 11 6 9 18 16 25 12 12 15 15 17 18 14 11 14 13 17 18 12 7 4 14 16 6 4 5 6 4 2 2 4
32 31 28 26 15 25 27 23 20 16 19 23 7 7 8 15 11 8 16 17 22 21 18 10 14 15 19 15 15 13 10 12 18 9 7 8 13 9 6 9 8 6 7 5 6 4 1
31 29 27 26 18 26 27 25 21 18 23 19 5 8 17 17 12 11 16 22 22 17 15 12 10 16 15 14 13 14 14 13 7 8 9 13 5 4 12 3 6 9 11 9 3 6 2
31 27 25 25 27 25 28 27 23 18 29 8 6 7 13 17 14 14 18 25 26 23 18 14 15 13 11 13 11 14 10 7 8 8 2 4 4 5 10 6 8 8 12 9 8 2 4
29 25 24 23 29 27 29 27 23 21 28 9 6 10 6 11 12 21 24 22 26 24 20 14 15 14 11 14 9 9 9 4 3 1 3 3 5 9 6 11 5 6 11 11 10 3 4
27 25 25 20 20 28 29 26 25 18 27 9 6 10 8 13 19 18 21 21 25 23 20 17 16 16 12 8 11 11 11 8 4 3 2 3 8 12 14 14 7 9 12 8 11 10 10
27 25 25 24 26 22 25 23 20 21 23 11 8 7 13 7 19 22 20 27 27 24 20 20 16 18 13 11 11 10 11 9 7 7 8 5 6 5 8 9 13 11 15 15 15 15 14
26 26 28 25 24 25 25 23 23 21 14 5 8 8 10 14 22 20 21 24 25 19 19 19 17 14 17 7 5 10 2 11 7 11 9 7 3 3 2 6 7 6 10 16 16 15 13
27 26 28 29 27 24 23 23 21 17 20 3 11 5 6 13 19 24 25 24 26 22 9 14 13 18 8 13 14 13 12 8 7 4 7 6 5 3 1 1 1 9 4 5 5 8 9
29 27 26 25 24 22 22 22 21 20 21 10 5 5 4 10 19 25 26 25 27 13 10 10 2 10 15 10 5 5 2 4 1 3 3 4 5 2 3 5 7 12 1 3 3 5 12
28 26 26 24 23 22 22 23 22 20 21 13 11 9 4 8 19 32 25 26 11 7 8 8 11 6 3 4 2 4 4 6 8 7 0 2 5 3 3 2 5 1 5 3 2 2 9
28 26 25 24 23 23 23 22 22 23 29 12 10 15 5 10 16 28 18 15 11 8 1 7 7 3 4 4 3 2 3 3 6 7 4 2 1 4 4 1 6 6 5 1 2 4 5
27 25 23 23 22 21 21 23 25 24 22 15 12 11 9 11 14 15 9 14 16 12 10 10 7 2 4 4 3 2 2 3 2 7 8 7 6 4 2 2 6 6 5 2 5 5 7
23 22 22 23 22 22 24 24 21 21 23 23 11 13 15 11 8 12 11 13 10 12 7 9 6 9 5 5 2 4 2 2 2 3 6 4 5 4 7 4 6 4 5 6 7 5 8
Wind_Direction
291 292 285 300 320 240 234 237 234 239 248 257 266 279 289 298 303 307 304 312 304 304 301 304 316 335 314 241 257 139 131 139 184 198 219 244 239 244 248 253 243 238 259 234 38 275 118
283 291 279 275 295 290 239 234 234 233 240 250 258 273 285 289 296 301 301 303 298 297 295 293 307 319 252 263 292 136 115 157 194 200 229 248 249 265 297 296 240 219 254 117 288 276 144
273 280 282 260 276 295 261 232 229 229 234 243 248 264 279 287 295 301 299 295 290 287 282 284 300 287 265 248 290 328 183 196 217 197 247 234 267 282 248 279 275 310 271 89 254 191 334
263 266 275 277 263 281 280 245 228 228 231 233 244 256 273 287 295 298 294 286 281 277 268 278 282 272 262 274 239 252 250 231 233 252 232 276 323 270 286 308 282 243 186 181 217 239 203
258 261 263 269 259 259 276 264 237 230 227 228 239 254 270 284 292 296 290 280 270 265 258 256 244 227 265 215 228 236 249 244 184 222 228 291 260 245 246 242 247 275 189 178 243 207 166
252 252 254 259 265 256 257 265 250 229 223 220 229 246 259 275 288 291 285 275 263 262 232 223 257 275 251 235 202 233 209 228 209 190 194 230 211 236 217 234 173 211 251 200 214 173 206
250 246 245 252 253 261 254 262 251 234 220 215 223 235 251 271 281 277 278 242 220 194 236 235 211 237 180 354 300 232 226 202 233 185 221 192 205 215 254 180 229 223 239 210 218 155 206
248 244 243 239 245 251 260 262 267 232 218 209 213 227 238 265 276 246 262 247 304 13 290 226 248 260 275 303 279 217 199 209 199 244 65 291 192 253 214 217 248 277 70 315 119 158 202
252 247 241 236 237 244 250 253 261 238 217 207 202 212 214 239 164 203 233 243 283 6 269 273 210 229 237 222 244 229 190 229 236 156 297 304 130 290 200 228 230 282 122 307 353 238 213
251 252 245 236 235 236 239 244 248 258 219 201 194 196 181 142 191 234 235 238 254 322 278 240 186 218 223 232 233 248 208 234 136 251 117 283 277 266 279 240 275 35 338 202 226 214 228
247 247 243 240 231 229 227 233 230 255 222 196 190 182 170 193 342 236 353 181 175 196 274 177 178 179 190 207 170 224 207 242 167 243 143 298 307 279 264 98 308 175 236 264 261 257 111
245 237 240 236 227 222 221 221 218 241 225 198 190 172 168 222 249 262 319 317 152 229 236 163 151 197 201 200 241 213 192 232 260 157 203 176 250 256 255 84 337 174 212 243 262 284 191
250 234 236 236 227 218 219 219 213 219 221 204 185 171 176 211 225 214 250 256 213 233 239 180 171 189 211 200 222 238 177 208 228 208 220 174 229 235 176 204 197 224 265 272 24 333 232
244 238 232 234 231 216 214 216 211 210 213 198 181 163 214 232 263 300 207 205 229 202 244 183 186 196 209 208 207 207 223 210 211 241 227 206 216 220 202 254 81 317 270 109 332 213 312
242 239 229 224 232 220 207 210 210 207 205 188 155 192 223 217 247 256 221 214 200 248 204 220 193 199 208 217 202 200 221 216 217 223 255 338 67 343 322 253 156 226 264 149 270 107 313
240 235 226 216 228 226 211 203 202 202 186 164 172 188 223 211 191 234 221 226 227 238 279 187 211 204 210 214 188 205 207 232 225 221 144 155 27 276 254 251 211 267 348 283 207 280 269
235 229 222 215 228 225 210 196 195 191 173 168 194 193 197 178 168 215 221 216 235 239 253 270 218 218 226 206 188 228 216 216 219 175 205 147 142 245 230 215 250 175 241 230 285 277 72
235 219 220 217 214 227 207 193 187 182 172 173 208 213 143 148 184 215 222 215 234 237 246 250 264 234 222 219 198 219 210 213 207 228 198 232 298 181 209 111 356 315 298 226 173 270 169
222 215 215 216 212 232 201 193 183 173 180 166 195 181 156 165 201 205 211 220 234 229 241 208 245 246 225 235 216 201 226 28 50 198 230 222 238 277 288 213 206 234 250 250 278 115 243
213 211 213 212 210 245 194 188 175 182 189 195 197 165 177 217 220 198 198 211 221 235 240 203 231 226 230 228 197 199 216 124 133 116 58 314 242 250 239 264 337 225 235 249 226 156 239
204 206 206 198 211 233 188 183 174 182 192 202 233 191 169 188 207 205 200 207 217 212 222 241 219 223 210 223 204 213 214 118 146 106 160 246 246 261 265 276 294 293 295 254 250 247 228
203 204 197 194 223 199 180 180 176 181 194 212 207 196 162 188 191 212 208 216 215 205 204 231 212 217 202 214 219 193 215 156 178 168 208 202 244 289 294 297 289 273 277 277 274 276 279
200 201 193 186 199 198 185 182 186 187 188 183 223 269 180 210 186 195 212 206 224 209 208 220 212 196 215 203 141 63 108 172 201 166 198 189 233 130 243 352 351 324 249 252 262 267 270
191 194 191 190 198 191 187 187 182 190 194 296 213 265 216 185 183 199 196 210 217 217 189 195 215 224 112 111 88 74 73 74 87 64 202 190 213 88 152 316 260 241 39 356 338 314 317
189 193 192 189 189 189 187 189 182 179 196 229 278 247 252 196 183 188 199 203 221 186 140 230 79 114 153 117 107 100 81 45 169 130 167 218 130 124 145 211 280 306 36 25 27 47 36
187 186 186 189 186 189 188 187 187 186 201 229 251 258 287 216 199 181 192 213 184 150 119 198 95 127 126 86 115 170 168 204 168 142 190 105 154 154 171 212 210 97 101 55 341 168 37
183 185 187 187 186 190 191 183 186 193 202 212 247 218 289 214 191 188 196 205 125 116 312 155 126 103 17 90 130 156 202 228 161 161 173 95 313 176 145 205 293 84 110 92 220 69 52
184 185 184 185 183 186 190 185 197 199 203 211 240 233 212 245 163 184 217 203 129 114 232 143 132 138 117 108 136 136 106 208 212 180 158 169 159 184 155 143 263 130 132 135 56 10 13
179 179 180 183 187 195 202 197 202 206 212 201 245 228 240 245 73 80 46 34 36 128 166 187 144 149 156 123 76 73 107 25 19 183 162 194 185 174 171 197 144 96 52 70 42 20 13